Location: *
(45.5224°N, 122.7471°W)
Time: 03:17:14
(UTC+00:00)

SJ-6F - Pass Details

Date: 09 April 2020
Orbit: 572 x 593 km, 97.7° (Epoch: 25 May)

Event Time Altitude Azimuth Distance (km) Brightness Sun altitude
Rises 12:50:20 0° 10° (N) 2,820 8.4 -8.4°
Reaches altitude 10° 12:52:30 10° 8° (N) 1,919 7.5 -8.0°
Maximum altitude 12:56:38 70° 286° (WNW) 630 4.4 -7.3°
Drops below altitude 10° 13:00:46 10° 203° (SSW) 1,914 6.7 -6.6°
Sets 13:02:56 0° 201° (SSW) 2,813 7.6 -6.3°
